COSMOS 2251 DEB, 34028

Orbit data source: Space-Track

COSMOS 2251 DEB, 34028 is space debris in LEO originally from a launch on Wed, 16 Jun 1993 UTC launched from the Plesetsk Missile And Space Complex (PKMTR). The debris from Iridium 33, an American commercial communications satellite, has been tracked extensively since its accidental collision with the defunct Russian satellite Cosmos 2251 in 2009. This event, occurring at high speed in low Earth orbit (LEO), generated thousands of pieces of space debris, significantly increasing the risk of further collisions. The Iridium 33 debris cloud has impacted space traffic management and orbital debris mitigation strategies, making it a subject of ongoing study in space situational awareness.

Loading next visibility...
Identifier
34028, 1993-036HP
Orbit
LEO
Country
Flag of CISCIS
Related business
Manufacturer
Unknown
Mission
Spacecraft
Bus & Motor
Unknown
Mass
Unknown
Launch date (UTC)
1993-06-16 (33 years ago)
Launch vehicle
Unknown
Launch site
Plesetsk Missile And Space Complex (PKMTR)
Object type
Payload
Rocket body
Debris
Shape & HBR
Unknown shape, 0.1 m
Radar Cross Section
Small (<0.1 m²)

Expand to show TLE details & history
Last TLE update: 13 hours ago

TLE from 13 hours ago
0 COSMOS 2251 DEB
1 34028U 93036HP  26036.75376629  .00000590  00000-0  68670-3 0  9994
2 34028  73.8807 262.9064 0544804  31.3377  37.9623 13.20698751817345
Epoch: 2026-02-05T18:05Z
TLE epoch observation values (Epoch: 2026-02-05T18:05:25.407Z)
Latitude
67.08415°
Longitude
-101.50708°
Altitude
877.566 km
Speed
7.573 km/s
True Right ascension
20h 23m 00s
True Declination
66° 57' 45"
Sunlit
Object was in daylight at epoch
Visualization orbit readout
Latitude
Unknown
Longitude
Unknown
Altitude
Unknown
Speed
Unknown
Apparent Right ascension
Unknown
Apparent Declination
Unknown
Sunlit
N/A
Visualization observer readout
Local Sidereal Time
09:24:16
Azimuth
Unknown
Elevation
Unknown
Doppler factor
Unknown
Orbital elements
Apogee altitude
1,591.568 km
Perigee altitude
768.048 km
Semi-major axis
7,557.945 km
Eccentricity
0.05448
Inclination
73.8807°
RAAN
262.9064°
Arg. of periapsis
31.3377°
True anomaly
42.01659°
Mean anomaly
37.9623°
Eccentric anomaly
39.9674°
Mean motion
3.30322 °/min
Orbital period
108.98 mins
BSTAR
0.0006867
Loading maneuver chart data...
Computing Atmospheric mass density...

Documentation

Showing up to 5 results
|